Regional Weather Roundup
Issued by NWS

Home | Current Version | Previous Version | Text Only | Print | Product List | Glossary On
Versions: 1 2 3 4 5 6 7 8 9 10 11 12 13 14 15 16 17 18 19 20 21 22 23 24 25 26 27 28 29 30 31 32 33 34 35 36 37 38 39 40 41 42 43 44 45 46 47 48 49 50
347
ASUS44 KLIX 181013
RWRLA
LOUISIANA WEATHER ROUNDUP
NATIONAL WEATHER SERVICE NEW ORLEANS LA
400 AM CST WED JAN 18 2017

NOTE: "FAIR" INDICATES FEW OR NO CLOUDS BELOW 12,000 FEET WITH NO
      SIGNIFICANT WEATHER AND/OR OBSTRUCTIONS TO VISIBILITY.
      SKY/WX - SKY CONDITION AND SIGNIFICANT WEATHER.
      TMP - AIR TEMPERATURE.    DP   - DEWPOINT TEMPERATURE.
      RH  - RELATIVE HUMIDITY.  PRES - PRESSURE.
      HX  - HEAT INDEX.         WCI  - WIND CHILL INDEX.

*  THESE STATIONS ARE NOT NWS OR FAA STATIONS AND ARE NOT UNDER
   NWS QUALITY CONTROL.

LAZ040-048-061>063-065-066-069-181100-
SOUTHEAST LOUISIANA

CITY           SKY/WX    TMP DP  RH WIND       PRES   REMARKS
N.O. AUDUBON   NOT AVBL
N.O. INTL ARPT FOG       68  68 100 S6        30.12S VSB 1/2
N.O. LAKEFRONT CLOUDY    68  68 100 S9        30.13S
N.O. DOWNTOWN*   N/A     69  68  96 S6        30.13S FOG
RESERVE*       FOG       69  67  94 CALM      30.12S VSB 1/2
SLIDELL        FOG       67  67 100 CALM      30.13R VSB 3/4
BATON ROUGE    FOG       64  64 100 E5        30.11S VSB 1/4
BOOTHVILLE     FOG       57  57 100 E3        30.12F VSB 1/4
BELLE CHASSE   CLOUDY    68  68 100 SE3       30.11F
BOGALUSA*      CLOUDY    68  65  91 CALM      30.15S VSB 1
GALLIANO*      FOG       68  66  92 CALM      30.11S VSB 1/4
NEW ROADS*     PTSUNNY   66  65  99 SE3       30.10F
GONZALES*      CLOUDY    69  68  97 SE5       30.11S
HAMMOND*       FOG       66  63  88 CALM      30.13S VSB 1/4
HOUMA*         CLOUDY    69  69  99 SE3       30.11F FOG
PORT FOURCHON* FOG       66  66 100 E6        30.10F VSB 1/4

$$

LAZ041-044-053-054-181100-
SOUTHWEST LOUISIANA

CITY           SKY/WX    TMP DP  RH WIND       PRES   REMARKS
LAKE CHARLES   CLOUDY    70  69  97 S8        30.07R
LAFAYETTE      CLOUDY    71  69  93 VRB5      30.09F
PATTERSON      CLOUDY    68  68 100 SE5       30.11S
SALT POINT     NOT AVBL
NEW IBERIA     CLOUDY    69  67  93 SE8       30.10F FOG
CHENAULT AIRPK CLOUDY    69  69  99 S6        30.07S

$$

LAZ027-028-181100-
CENTRAL LOUISIANA

CITY           SKY/WX    TMP DP  RH WIND       PRES   REMARKS
FORT POLK      CLOUDY    61  59  94 E3        30.07S FOG
ALEXANDRIA INT CLOUDY    60  58  92 E5        30.07F
ALEXANDRIA     CLOUDY    60  58  92 E3        30.09F

$$

LAZ001-002-181100-
NORTHWEST LOUISIANA

CITY           SKY/WX    TMP DP  RH WIND       PRES   REMARKS
SHREVEPORT     HVY RAIN  53  52  96 NE12      30.09F FOG
BARKSDALE AFB  RAIN      52  52 100 E7        30.11F FOG
DTN SHREVEPORT RAIN      53  50  89 NE8       30.10F FOG

$$

LAZ014-016-181100-
NORTHEAST LOUISIANA

CITY           SKY/WX    TMP DP  RH WIND       PRES   REMARKS
MONROE         CLOUDY    54  52  93 N7        30.15S
TALLULAH       CLOUDY    55  55 100 N9        30.15S FOG

$$





USA.gov is the U.S. government's official web portal to all federal, state and local government web resources and services.